Погода в Глендейле

США     34°11′12″N   118°14′40″W
темп.,
°C
ветер,
м/с
пор.,
м/с
влажн.,
%
обл.,
%
осадки,
мм/ч
давл.,
гПа
погр.,
м
15 мая, сб
сб1523:00+12вюв23759 0.0 1014187
02:00+10вюв238943 0.0 1014244
05:00+10юв238548 0.0 1013356
08:00+12ююв227749 0.0 1014498
11:00+15ююз326333 0.0 1013720
14:00+18ююз43502 0.0 1011894
17:00+18ююз43512 0.0 1011962
20:00+12ю337830 0.0 1012399
16 мая, вс
вс1623:00+11ююв338068 0.0 1013601
02:00+11ююв348377 0.0 1013499
05:00+10ююв348596 0.1 1013516
08:00+11ююв338497 0.1 1015541
11:00+12ююв337698 0.1 1015718
14:00+14ю336779 0.1 1015967
17:00+14ююз326650 0.1 1014827
20:00+12ююз227614 0.0 1014320
17 мая, пн
пн1723:00+10юв228551 0.0 1016372
02:00+10ююв238976 0.0 1016407
05:00+10юв228777 0.1 1016352
08:00+12ю218065 0.0 1016453
11:00+17юз32565 0.0 1016755
14:00+21юз43420 0.0 10141003
17:00+20ююз43470 0.0 1013768
20:00+14юв22720 0.0 1014202
18 мая, вт
вт1823:00+13юв22782 0.0 1015169
02:00+11вюв12836 0.0 1014153
05:00+11всв01834 0.0 1014123
08:00+15ююз11674 0.0 1014313
11:00+20юз32490 0.1 1014754
14:00+25юз34340 0.0 10111006
17:00+25юз34340 0.0 1010791
20:00+17ю11600 0.0 1011149
19 мая, ср
ср1923:00+16ююв015745 0.0 1012122
02:00+14св01680 0.0 1012110
05:00+14ссв11640 0.0 101171
08:00+17зюз21508 0.0 1011364
11:00+21юз42453 0.0 1011812
14:00+23ююз4239100 0.0 10091010
17:00+20ююз3250100 0.0 1008764
20:00+15ю33720 0.0 1009284